Precipitable_Water
1.62 1.43 1.35 1.29 1.31 1.44 1.58 1.59 1.51 1.50 1.43 1.40 1.29 1.21 1.23 1.26 1.21 1.29 1.51 1.65 1.53 1.57 1.53 1.49 1.32 1.17 1.05 1.03 1.14 1.24 1.28 1.21 1.16
1.58 1.57 1.50 1.46 1.41 1.36 1.34 1.36 1.40 1.42 1.40 1.37 1.37 1.33 1.33 1.32 1.23 1.28 1.39 1.47 1.51 1.52 1.55 1.55 1.53 1.42 1.25 1.12 1.02 1.07 1.23 1.16 1.09
1.51 1.51 1.50 1.49 1.46 1.43 1.40 1.31 1.29 1.31 1.41 1.42 1.35 1.32 1.37 1.37 1.28 1.23 1.24 1.27 1.41 1.41 1.39 1.51 1.51 1.43 1.42 1.26 1.11 1.05 1.06 1.05 1.02
1.47 1.46 1.46 1.45 1.42 1.42 1.42 1.40 1.30 1.18 1.25 1.34 1.34 1.33 1.35 1.41 1.43 1.44 1.37 1.26 1.26 1.29 1.29 1.25 1.39 1.41 1.35 1.33 1.20 1.14 1.09 1.09 1.03
1.42 1.45 1.43 1.42 1.40 1.37 1.35 1.35 1.32 1.26 1.16 1.13 1.20 1.28 1.35 1.42 1.53 1.49 1.43 1.41 1.36 1.39 1.31 1.23 1.15 1.25 1.39 1.36 1.33 1.26 1.17 1.13 1.03
1.24 1.28 1.34 1.37 1.39 1.37 1.35 1.32 1.28 1.24 1.22 1.19 1.12 1.08 1.16 1.29 1.38 1.32 1.37 1.39 1.39 1.42 1.53 1.45 1.40 1.26 1.25 1.33 1.37 1.38 1.29 1.25 1.15
0.93 0.99 1.01 1.04 1.11 1.18 1.26 1.28 1.28 1.27 1.24 1.21 1.17 1.08 1.02 1.06 1.16 1.13 1.26 1.33 1.38 1.40 1.44 1.53 1.56 1.51 1.35 1.27 1.34 1.40 1.43 1.36 1.30
0.50 0.58 0.68 0.75 0.77 0.81 0.87 1.00 1.06 1.09 1.15 1.20 1.18 1.17 1.17 1.10 1.01 1.16 1.33 1.40 1.37 1.36 1.41 1.47 1.52 1.53 1.49 1.42 1.30 1.37 1.43 1.45 1.44
0.25 0.26 0.29 0.33 0.39 0.48 0.54 0.59 0.64 0.71 0.80 0.93 1.06 1.15 1.17 1.21 1.27 1.30 1.21 1.29 1.32 1.32 1.26 1.24 1.33 1.31 1.34 1.48 1.45 1.37 1.42 1.44 1.48
0.21 0.20 0.20 0.20 0.21 0.21 0.23 0.27 0.29 0.32 0.38 0.47 0.57 0.70 0.83 1.05 1.23 1.31 1.33 1.35 1.31 1.20 1.28 1.30 1.17 1.14 1.17 1.29 1.44 1.43 1.41 1.45 1.45
0.21 0.20 0.19 0.19 0.19 0.19 0.18 0.18 0.17 0.17 0.17 0.18 0.21 0.30 0.42 0.57 0.67 0.82 1.01 1.16 1.25 1.31 1.30 1.22 1.26 1.31 1.23 1.27 1.32 1.41 1.47 1.45 1.42
0.22 0.21 0.20 0.20 0.20 0.20 0.19 0.19 0.18 0.17 0.17 0.15 0.16 0.18 0.23 0.27 0.34 0.44 0.52 0.61 0.78 0.96 1.13 1.21 1.26 1.33 1.35 1.37 1.39 1.33 1.38 1.46 1.49
0.23 0.22 0.22 0.22 0.21 0.21 0.20 0.20 0.19 0.18 0.18 0.17 0.17 0.19 0.26 0.21 0.23 0.23 0.26 0.27 0.33 0.42 0.58 0.81 0.99 1.15 1.27 1.41 1.45 1.43 1.41 1.37 1.37
0.23 0.23 0.23 0.23 0.23 0.22 0.22 0.21 0.21 0.19 0.18 0.18 0.18 0.21 0.25 0.19 0.22 0.21 0.21 0.20 0.22 0.22 0.26 0.30 0.44 0.70 0.94 1.19 1.30 1.37 1.41 1.47 1.41
0.25 0.24 0.24 0.24 0.24 0.23 0.22 0.22 0.23 0.21 0.20 0.20 0.19 0.22 0.26 0.21 0.22 0.21 0.19 0.19 0.18 0.18 0.21 0.21 0.24 0.30 0.46 0.77 0.98 1.09 1.22 1.32 1.40
0.27 0.27 0.26 0.26 0.24 0.24 0.24 0.24 0.23 0.23 0.23 0.21 0.21 0.22 0.27 0.25 0.20 0.22 0.20 0.20 0.19 0.19 0.19 0.17 0.20 0.23 0.27 0.32 0.54 0.71 0.81 1.08 1.23
0.28 0.29 0.28 0.27 0.27 0.27 0.26 0.26 0.25 0.25 0.26 0.22 0.22 0.19 0.22 0.26 0.20 0.23 0.21 0.20 0.20 0.20 0.20 0.18 0.19 0.19 0.21 0.25 0.34 0.34 0.46 0.68 0.84
0.34 0.34 0.33 0.33 0.33 0.31 0.31 0.30 0.29 0.27 0.29 0.29 0.25 0.21 0.20 0.21 0.25 0.22 0.23 0.22 0.21 0.21 0.21 0.19 0.20 0.20 0.21 0.23 0.24 0.26 0.28 0.35 0.55
0.35 0.34 0.34 0.33 0.33 0.31 0.31 0.31 0.31 0.31 0.29 0.31 0.31 0.30 0.28 0.23 0.22 0.24 0.25 0.25 0.23 0.22 0.22 0.20 0.21 0.21 0.21 0.22 0.22 0.22 0.23 0.28 0.32
0.33 0.31 0.31 0.30 0.30 0.30 0.30 0.29 0.29 0.29 0.29 0.29 0.29 0.30 0.30 0.29 0.28 0.26 0.24 0.25 0.25 0.24 0.23 0.22 0.21 0.21 0.21 0.22 0.21 0.22 0.23 0.24 0.27
Wind_Speed
4 4 3 3 3 3 3 3 4 5 5 4 4 4 3 3 4 4 3 2 2 2 2 2 2 2 3 3 2 3 5 4 3
2 2 1 2 2 3 3 3 4 5 5 6 5 5 4 3 4 4 4 3 2 3 3 3 3 3 3 2 2 3 4 3 2
2 3 3 2 2 2 3 3 4 5 6 6 7 7 6 6 5 5 6 6 5 5 5 5 5 5 5 5 4 4 5 5 5
3 2 3 3 4 4 5 4 5 5 6 6 8 8 8 8 7 7 7 7 7 8 8 7 7 7 8 8 7 6 6 6 7
3 3 3 3 4 5 5 6 6 6 6 7 8 9 10 10 9 10 9 9 9 9 10 10 9 10 10 10 10 9 8 8 8
4 4 4 4 4 5 6 7 8 8 8 9 9 10 10 11 12 13 12 12 12 11 11 11 12 12 12 12 13 13 12 11 10
6 7 6 6 6 7 6 6 7 9 10 10 11 11 12 12 13 14 15 15 15 15 15 13 13 14 15 15 15 16 16 15 13
8 8 8 9 9 9 10 10 10 10 10 12 13 13 14 14 15 15 15 15 15 15 16 16 16 15 16 17 18 18 18 18 18
10 10 10 10 11 11 12 12 12 13 13 14 14 14 14 16 17 16 16 16 17 17 18 18 18 17 16 17 18 20 20 21 21
12 12 12 13 13 14 14 15 15 15 16 16 17 17 18 18 17 18 19 19 19 19 20 20 20 20 19 19 19 18 21 22 23
15 15 15 15 16 16 16 17 17 18 18 18 19 19 20 20 20 21 21 20 20 21 22 22 22 22 22 21 21 20 20 21 23
17 17 17 18 18 18 19 19 19 20 21 21 22 22 22 22 23 23 23 24 24 23 23 24 23 24 24 24 24 24 23 22 23
19 19 20 20 20 21 21 21 22 22 23 23 24 24 25 25 26 26 26 26 27 27 27 27 26 26 26 26 27 26 25 26 25
22 22 23 23 23 24 24 24 25 25 26 26 27 27 27 27 28 28 28 29 29 30 30 29 29 29 28 27 28 28 28 29 28
25 25 25 26 26 26 27 27 27 27 28 29 29 29 29 29 30 30 31 31 31 32 32 32 32 31 31 31 31 30 30 31 31
27 27 28 28 28 28 29 30 30 30 31 31 32 32 32 32 32 33 33 33 34 34 34 34 35 35 35 34 34 34 33 33 33
29 29 30 30 31 31 31 32 32 33 33 33 34 34 35 34 36 36 36 36 36 37 37 37 37 37 37 37 37 36 36 36 36
31 32 32 33 33 34 34 34 35 35 35 35 35 36 36 40 37 38 38 39 39 39 39 40 40 40 40 40 40 39 40 40 40
34 34 34 35 35 36 36 37 38 38 39 39 39 39 40 40 41 40 42 41 42 42 42 42 42 42 42 43 43 43 43 43 42
35 36 36 36 37 38 39 40 40 41 41 42 43 43 43 45 45 47 44 46 45 45 45 45 45 44 45 45 45 45 46 46 45
Wind_Direction
110 114 135 156 166 163 174 181 190 191 192 189 182 178 179 206 179 174 166 152 168 178 165 161 155 149 146 148 154 160 151 147 135
180 171 150 146 153 187 197 210 213 213 212 215 215 212 211 205 205 208 211 214 216 218 221 219 215 211 202 199 199 193 192 199 206
216 218 220 213 222 227 225 238 230 226 227 228 229 230 231 231 229 228 231 242 244 244 244 246 239 237 234 235 238 231 231 235 241
221 231 237 240 246 252 252 251 242 238 238 241 240 238 240 239 239 239 245 252 252 254 252 253 250 248 246 243 246 246 246 246 250
234 246 254 257 258 263 263 256 257 250 250 250 250 248 245 244 244 246 253 256 257 261 258 255 256 254 253 249 250 249 251 252 253
248 259 265 266 268 271 275 267 260 258 260 260 259 255 254 251 250 255 260 260 259 261 264 261 259 259 258 255 254 252 252 252 252
256 261 267 272 273 276 276 277 272 269 267 267 263 263 261 258 258 261 264 263 262 261 260 264 265 263 262 260 258 255 253 253 253
262 266 269 271 275 276 275 276 277 279 277 272 270 270 266 264 261 268 267 264 264 263 261 261 266 269 267 263 260 260 256 253 253
265 269 273 275 276 277 278 278 278 278 277 275 273 273 272 270 266 266 268 266 267 266 265 264 265 268 271 266 264 261 260 255 255
266 269 273 276 277 279 279 279 279 279 278 277 275 273 272 272 270 268 267 268 269 268 267 267 266 267 267 267 269 267 260 259 258
267 269 272 275 278 279 280 280 279 279 279 278 277 275 273 272 272 271 270 271 271 271 269 269 268 267 266 266 266 267 267 263 263
267 269 272 275 277 278 279 280 280 280 280 278 277 275 273 273 272 271 272 272 272 273 272 270 269 267 267 267 266 265 266 267 266
267 270 273 275 277 278 278 279 279 280 281 279 278 276 274 273 272 272 271 272 272 272 273 272 271 269 268 267 266 265 265 264 267
268 270 273 274 276 277 278 278 279 280 281 280 278 276 275 274 272 272 272 272 272 272 271 271 271 270 269 267 266 266 265 265 266
269 271 273 275 276 277 278 277 278 279 281 280 280 276 274 275 274 273 273 273 273 272 271 270 269 269 268 267 267 268 267 266 265
271 272 274 275 276 277 278 278 278 278 281 279 279 276 274 273 275 274 274 274 273 273 271 271 269 268 267 267 265 268 269 266 265
272 273 274 275 275 277 278 279 279 278 280 280 278 277 274 272 276 274 274 274 274 273 272 271 270 269 267 266 265 267 267 267 266
272 273 274 275 276 276 277 278 279 279 279 280 279 277 274 278 271 274 273 274 274 273 272 272 270 269 267 266 266 267 267 266 264
272 273 274 275 276 276 277 278 278 279 279 279 279 278 277 275 274 273 276 273 274 274 272 272 271 269 268 267 266 267 267 266 265
272 273 274 275 276 277 277 278 279 279 279 279 279 279 277 275 273 274 273 274 274 273 273 271 270 269 269 267 267 268 267 266 265